• In Russia
  • List of Countries
  • For 7 days
  • Water Temperature
  • Satellite Maps
  • Weather Map
  • Weather Widgets
  • user-avatar
    Login

    Hourly Weather Sherpur

    Today, 20 February, Wednesday

    Time Temperature Precipitation Wind Pressure Humidity
    00:00 -5°C° 0.4 mm 2 mps 604 mmHg 90%
    01:00 -5°C° 0.4 mm 2 mps 604 mmHg 88%
    02:00 -3°C° 0.4 mm 1 mps 604 mmHg 87%
    03:00 -3°C° 0.1 mm 1 mps 604 mmHg 85%
    04:00 -3°C° 0.1 mm 1 mps 605 mmHg 84%
    05:00 -4°C° 0 mm 2 mps 604 mmHg 88%
    06:00 -4°C° 0.1 mm 2 mps 604 mmHg 86%
    07:00 -4°C° 0.1 mm 2 mps 604 mmHg 85%
    08:00 -4°C° 0.1 mm 2 mps 605 mmHg 84%
    09:00 -3°C° 0.3 mm 2 mps 605 mmHg 83%
    10:00 -3°C° 0.3 mm 2 mps 605 mmHg 82%
    11:00 -2°C° 0 mm 2 mps 605 mmHg 81%
    12:00 -2°C° 0.8 mm 2 mps 604 mmHg 82%
    13:00 -2°C° 0.8 mm 2 mps 604 mmHg 84%
    14:00 -2°C° 0.8 mm 3 mps 603 mmHg 86%
    15:00 -2°C° 1.1 mm 3 mps 603 mmHg 88%
    16:00 -2°C° 1.1 mm 3 mps 603 mmHg 90%
    17:00 -4°C° 1.1 mm 3 mps 603 mmHg 92%
    18:00 -3°C° 0.9 mm 2 mps 603 mmHg 92%
    19:00 -3°C° 0.9 mm 2 mps 603 mmHg 92%
    20:00 -1°C° 0.9 mm 1 mps 603 mmHg 92%
    21:00 -1°C° 0.5 mm 1 mps 603 mmHg 91%
    22:00 -2°C° 0.5 mm 1 mps 603 mmHg 90%
    23:00 -2°C° 0.5 mm 1 mps 603 mmHg 89%

    Tomorrow, 21 February, Thursday

    Time Temperature Precipitation Wind Pressure Humidity
    00:00 -2°C° 0.3 mm 1 mps 604 mmHg 89%
    01:00 -2°C° 0.3 mm 1 mps 604 mmHg 88%
    02:00 -2°C° 0.3 mm 1 mps 604 mmHg 87%
    03:00 -2°C° 0.2 mm 1 mps 604 mmHg 87%
    04:00 -2°C° 0.2 mm 1 mps 604 mmHg 86%
    05:00 -2°C° 0.2 mm 1 mps 604 mmHg 86%
    06:00 -2°C° 0.2 mm 1 mps 605 mmHg 85%
    07:00 -2°C° 0.2 mm 1 mps 606 mmHg 84%
    08:00 -1°C° 0.2 mm 1 mps 606 mmHg 84%
    09:00 0°C° 0 mm 1 mps 607 mmHg 79%
    10:00 0°C° 0 mm 1 mps 607 mmHg 74%
    11:00 +1°C° 0 mm 1 mps 607 mmHg 69%
    12:00 +2°C° 0 mm 1 mps 607 mmHg 68%
    13:00 +2°C° 0 mm 1 mps 607 mmHg 66%
    14:00 +3°C° 0 mm 1 mps 607 mmHg 65%
    15:00 +2°C° 0 mm 1 mps 607 mmHg 66%
    16:00 +2°C° 0 mm 1 mps 607 mmHg 66%
    17:00 +2°C° 0 mm 1 mps 607 mmHg 67%
    18:00 -1°C° 0 mm 2 mps 607 mmHg 67%
    19:00 -3°C° 0 mm 2 mps 607 mmHg 66%
    20:00 -5°C° 0 mm 3 mps 608 mmHg 65%
    21:00 -6°C° 0 mm 3 mps 608 mmHg 63%
    22:00 -6°C° 0 mm 3 mps 608 mmHg 61%
    23:00 -7°C° 0 mm 3 mps 608 mmHg 59%

    Day after tomorrow, 22 February, Friday

    Time Temperature Precipitation Wind Pressure Humidity
    00:00 -7°C° 0 mm 3 mps 608 mmHg 57%
    01:00 -7°C° 0 mm 3 mps 608 mmHg 54%
    02:00 -8°C° 0 mm 3 mps 608 mmHg 52%
    03:00 -8°C° 0 mm 3 mps 608 mmHg 50%
    04:00 -7°C° 0 mm 2 mps 608 mmHg 48%
    05:00 -7°C° 0 mm 2 mps 607 mmHg 46%
    06:00 -7°C° 0 mm 2 mps 608 mmHg 46%
    07:00 -7°C° 0 mm 2 mps 608 mmHg 45%
    08:00 -6°C° 0 mm 2 mps 608 mmHg 44%
    09:00 -5°C° 0 mm 2 mps 608 mmHg 42%
    10:00 -1°C° 0 mm 1 mps 608 mmHg 40%
    11:00 +1°C° 0 mm 1 mps 608 mmHg 37%
    12:00 +2°C° 0 mm 1 mps 608 mmHg 40%
    13:00 +2°C° 0 mm 1 mps 608 mmHg 43%
    14:00 +3°C° 0 mm 1 mps 607 mmHg 45%
    15:00 +2°C° 0 mm 1 mps 607 mmHg 48%
    16:00 +2°C° 0 mm 1 mps 607 mmHg 51%
    17:00 +2°C° 0 mm 1 mps 607 mmHg 53%
    18:00 0°C° 0 mm 1 mps 607 mmHg 53%
    19:00 -3°C° 0 mm 2 mps 608 mmHg 52%
    20:00 -5°C° 0 mm 2 mps 608 mmHg 52%
    21:00 -5°C° 0 mm 2 mps 608 mmHg 51%
    22:00 -5°C° 0 mm 2 mps 608 mmHg 49%
    23:00 -6°C° 0 mm 2 mps 609 mmHg 48%

    23 February, Saturday

    Time Temperature Precipitation Wind Pressure Humidity
    00:00 -6°C° 0 mm 2 mps 608 mmHg 47%
    01:00 -6°C° 0 mm 2 mps 608 mmHg 46%
    02:00 -6°C° 0 mm 2 mps 608 mmHg 46%
    03:00 -6°C° 0 mm 2 mps 608 mmHg 45%
    04:00 -6°C° 0 mm 2 mps 608 mmHg 45%
    05:00 -6°C° 0 mm 2 mps 607 mmHg 44%
    06:00 -5°C° 0 mm 2 mps 607 mmHg 43%
    07:00 -5°C° 0 mm 2 mps 608 mmHg 43%
    08:00 -5°C° 0 mm 2 mps 608 mmHg 42%
    09:00 -3°C° 0 mm 2 mps 608 mmHg 38%
    10:00 0°C° 0 mm 1 mps 608 mmHg 35%
    11:00 +2°C° 0 mm 1 mps 608 mmHg 31%
    12:00 +3°C° 0 mm 1 mps 607 mmHg 33%
    13:00 +3°C° 0 mm 1 mps 607 mmHg 35%
    14:00 +4°C° 0 mm 1 mps 607 mmHg 36%
    15:00 +3°C° 0 mm 1 mps 606 mmHg 40%
    16:00 +3°C° 0 mm 1 mps 606 mmHg 43%
    17:00 +3°C° 0 mm 1 mps 606 mmHg 47%
    18:00 +2°C° 0 mm 1 mps 606 mmHg 47%
    19:00 0°C° 0 mm 1 mps 606 mmHg 47%
    20:00 -3°C° 0 mm 2 mps 606 mmHg 47%
    21:00 -3°C° 0 mm 2 mps 606 mmHg 47%
    22:00 -4°C° 0 mm 2 mps 606 mmHg 48%
    23:00 -4°C° 0 mm 2 mps 606 mmHg 48%

    24 February, Sunday

    Time Temperature Precipitation Wind Pressure Humidity
    00:00 -5°C° 0 mm 2 mps 606 mmHg 48%
    01:00 -5°C° 0 mm 2 mps 606 mmHg 47%
    02:00 -6°C° 0 mm 3 mps 606 mmHg 47%
    03:00 -6°C° 0 mm 3 mps 606 mmHg 47%
    04:00 -6°C° 0 mm 3 mps 605 mmHg 46%
    05:00 -6°C° 0 mm 3 mps 605 mmHg 46%
    06:00 -6°C° 0 mm 3 mps 606 mmHg 46%
    07:00 -6°C° 0 mm 3 mps 606 mmHg 46%
    08:00 -6°C° 0 mm 3 mps 606 mmHg 47%
    09:00 -3°C° 0 mm 2 mps 606 mmHg 44%
    10:00 -2°C° 0 mm 2 mps 606 mmHg 42%
    11:00 +2°C° 0 mm 1 mps 606 mmHg 40%
    12:00 +2°C° 0 mm 1 mps 606 mmHg 40%
    13:00 +3°C° 0 mm 1 mps 606 mmHg 41%
    14:00 +3°C° 0 mm 1 mps 605 mmHg 41%
    15:00 +3°C° 0 mm 1 mps 605 mmHg 43%
    16:00 +3°C° 0 mm 1 mps 605 mmHg 46%
    17:00 +3°C° 0 mm 1 mps 606 mmHg 48%
    18:00 +1°C° 0 mm 2 mps 606 mmHg 49%
    19:00 -2°C° 0 mm 2 mps 606 mmHg 51%
    20:00 -3°C° 0 mm 2 mps 606 mmHg 52%
    21:00 -5°C° 0 mm 3 mps 606 mmHg 51%
    22:00 -5°C° 0 mm 3 mps 606 mmHg 50%
    23:00 -6°C° 0 mm 3 mps 606 mmHg 49%

    25 February, Monday

    Time Temperature Precipitation Wind Pressure Humidity
    00:00 -6°C° 0 mm 3 mps 606 mmHg 48%
    01:00 -7°C° 0 mm 3 mps 606 mmHg 47%
    02:00 -7°C° 0 mm 3 mps 606 mmHg 46%
    03:00 -7°C° 0 mm 3 mps 606 mmHg 46%
    04:00 -7°C° 0 mm 3 mps 606 mmHg 46%
    05:00 -8°C° 0 mm 3 mps 606 mmHg 47%
    06:00 -7°C° 0 mm 3 mps 606 mmHg 46%
    07:00 -7°C° 0 mm 3 mps 606 mmHg 46%
    08:00 -7°C° 0 mm 3 mps 606 mmHg 46%
    09:00 -5°C° 0 mm 3 mps 606 mmHg 45%
    10:00 -3°C° 0 mm 2 mps 607 mmHg 43%
    11:00 -1°C° 0 mm 2 mps 607 mmHg 41%
    12:00 +1°C° 0 mm 2 mps 606 mmHg 41%
    13:00 +3°C° 0 mm 1 mps 606 mmHg 41%
    14:00 +3°C° 0 mm 1 mps 606 mmHg 41%
    15:00 +2°C° 0 mm 2 mps 606 mmHg 43%
    16:00 +2°C° 0 mm 2 mps 606 mmHg 45%
    17:00 +2°C° 0 mm 2 mps 606 mmHg 47%
    18:00 -1°C° 0 mm 2 mps 606 mmHg 49%
    19:00 -2°C° 0 mm 2 mps 607 mmHg 51%
    20:00 -5°C° 0 mm 3 mps 607 mmHg 54%
    21:00 -5°C° 0 mm 3 mps 607 mmHg 53%
    22:00 -6°C° 0 mm 3 mps 607 mmHg 52%
    23:00 -6°C° 0 mm 3 mps 607 mmHg 51%
    Show more